SCOUT A DEB, 2994

Orbit data source: Space-Track

SCOUT A DEB, 2994 is space debris in LEO originally from a launch on Mon, 25 Sep 1967 UTC launched from the Air Force Western Test Range (AFWTR). Debris objects in space refer to the collection of defunct objects orbiting the Earth. Examples of debris include non-operational satellites, rocket bodies, and fragments generated from explosions, collisions, or faulty payload assembly.

Loading next visibility...
Identifier
2994, 1967-092C
Orbit
LEO
Last TLE update
15 hours ago
Origin
Manufacturer
Unknown
Mission
Spacecraft
Bus & Motor
Unknown
Mass
Unknown
Launch date (UTC)
1967-09-25 (58 years ago)
Launch vehicle
Unknown
Launch site
Air Force Western Test Range (AFWTR)
Object type
Payload
Rocket body
Debris
Shape & HBR
Unknown
Radar Cross Section
Small (<0.1 m²)

Expand to show TLE details & history

TLE from 15 hours ago
0 SCOUT A DEB
1 02994U 67092C   25182.52315938  .00000370  00000-0  24865-3 0  9990
2 02994  89.4365   6.6967 0087382 223.5292 135.8967 13.97074371925814
Epoch: 2025-07-01T12:33Z
TLE epoch observation values (Epoch: 2025-07-01T12:33:20.97Z)
Latitude
-0.00006°
Longitude
-101.45807°
Altitude
952.935 km
Speed
7.352 km/s
True Right ascension
00h 26m 47s
True Declination
0° 00' 00"
Sunlit
Object was in daylight at epoch
Visualization orbit readout
Latitude
4.04638°
Longitude
-101.45813°
Altitude
956.903 km
Speed
7.348 km/s
Apparent Right ascension
01h 44m 39s
Apparent Declination
-17° 41' 40"
Sunlit
Object is in daylight
Visualization observer readout
Local Sidereal Time
15:44:05
Azimuth
57.941° ENE
Elevation
-55.969°
Doppler factor
1
Orbital elements
Apogee altitude
964.532 km
Perigee altitude
837.32 km
Semi-major axis
7,279.063 km
Eccentricity
0.00874
Inclination
89.4365°
RAAN
6.6967°
Arg. of periapsis
223.5292°
True anomaly
Unknown
Mean anomaly
135.8967°
Eccentric anomaly
Unknown
Mean motion
3.49486 °/min
Orbital period
103.01 mins
BSTAR
0.00024865
Loading maneuver chart data...
Loading SW <> Apogee altitude chart data...
Loading historical data...
Loading historical data...
Loading historical data...
Loading historical data...
Loading historical data...
Loading historical data...
Loading historical data...

SCOUT A DEB Visibility forecast

Observer location: undefined°, undefined°

Span
Click to sort rows by Start time (UTC) header in descending order
Start Az.
Max El. time (UTC)
Max El. Az.
Max El.
End time (UTC)
End Az.
4 mins2025-07-02 11:04:45.311Z91.473° ESE2025-07-02 11:06:45.311Z71.042° E13.273°2025-07-02 11:08:45.311Z50.622° ENE
11 mins2025-07-02 12:43:45.311Z179.278° S2025-07-02 12:48:45.311Z238.938° WSW44.875°2025-07-02 12:54:45.311Z357.447° N
8 mins2025-07-02 23:32:45.311Z33.855° NE2025-07-02 23:36:45.311Z86.478° E23.272°2025-07-02 23:40:45.311Z134.363° SE
9 mins2025-07-03 01:15:45.311Z339.106° N2025-07-03 01:19:45.311Z274.311° WNW32.959°2025-07-03 01:24:45.311Z211.515° SW
|